Weather History for Clinton-Sherman, OK

Change the Weather History Date:

Thursday, November 11, 2010

  Actual Average Record
Temperature  
Mean Temperature 60 °F -  
Max Temperature 73 °F 58 °F 79 °F (1999)
Min Temperature 46 °F 40 °F 27 °F (1997)
Degree Days  
Heating Degree Days 6    
Growing Degree Days 10 (Base 50)    
Moisture  
Dew Point 50 °F    
Average Humidity 81    
Maximum Humidity 100    
Minimum Humidity 41    
Precipitation  
Precipitation 0.00 in - - ()
Sea Level Pressure  
Sea Level Pressure 30.10 in    
Wind  
Wind Speed 11 mph (East)    
Max Wind Speed 25 mph    
Max Gust Speed 31 mph    
Visibility 7 miles    
Events Fog    
Averages and records for this station are not official NWS values.
T = Trace of Precipitation, MM = Missing Value Source: NWS Daily Summary

Daily Weather History Graph

Daily Weather History Graph

Search for Another Location

Airport:

Trip Planner

Search our weather history database for the weather conditions in past years. The results will help you decide how hot, cold, wet, or windy it might be!

Date:

Astronomy

Nov. 11, 2010 Rise Set
Actual Time 7:08 AM CST 5:33 PM CST
Civil Twilight 6:41 AM CST 6:00 PM CST
Nautical Twilight 6:10 AM CST 6:30 PM CST
Astronomical Twilight 5:40 AM CST 7:00 PM CST
Moon 12:07 PM CST (11/11) 10:41 PM CST (11/11)
Length of Visible Light 11h 18m
Length of Day
10h 25m
Waxing Crescent, 32% of the Moon is Illuminated
Nov 11
Waxing Crescent
Nov 13
First Quarter
Nov 21
Full
Nov 28
Last Quarter
Dec 5
New

Hourly Weather History & Observations

Time (CST) Temp. Dew Point Humidity Pressure Visibility Wind Dir Wind Speed Gust Speed Precip Events Conditions
12:53 AM 48.9 °F 36.0 °F 61% 30.06 in 10.0 mi East 10.4 mph - N/A   Clear
2:53 AM 46.9 °F 36.0 °F 66% 30.06 in 10.0 mi NE 9.2 mph - N/A   Partly Cloudy
3:53 AM 46.9 °F 37.0 °F 68% 30.07 in 10.0 mi NE 6.9 mph - N/A   Mostly Cloudy
4:53 AM 48.0 °F 39.9 °F 74% 30.07 in 10.0 mi ENE 13.8 mph - 0.00 in   Overcast
5:53 AM 48.0 °F 42.1 °F 80% 30.09 in 10.0 mi ENE 10.4 mph - 0.00 in   Mostly Cloudy
6:10 AM 48.2 °F 42.8 °F 82% 30.11 in 10.0 mi ENE 13.8 mph - N/A   Mostly Cloudy
6:44 AM 48.2 °F 42.8 °F 82% 30.11 in 10.0 mi ENE 13.8 mph - N/A   Overcast
6:53 AM 48.0 °F 44.1 °F 86% 30.11 in 10.0 mi ENE 13.8 mph - N/A   Overcast
7:38 AM 48.2 °F 44.6 °F 87% 30.13 in 10.0 mi ENE 8.1 mph - N/A   Overcast
7:53 AM 48.0 °F 46.0 °F 93% 30.13 in 8.0 mi ENE 8.1 mph - N/A   Overcast
8:15 AM 48.2 °F 46.4 °F 93% 30.14 in 5.0 mi East 5.8 mph - N/A   Overcast
8:43 AM 50.0 °F 48.2 °F 94% 30.15 in 2.0 mi ENE 10.4 mph - N/A   Overcast
8:51 AM 50.0 °F 48.2 °F 94% 30.15 in 1.0 mi ENE 12.7 mph - N/A   Overcast
8:53 AM 50.0 °F 48.0 °F 93% 30.14 in 0.8 mi ENE 13.8 mph - N/A   Overcast
9:12 AM 50.0 °F 48.2 °F 94% 30.15 in 0.5 mi East 10.4 mph - N/A Fog Fog
9:53 AM 50.0 °F 48.9 °F 96% 30.16 in 0.2 mi East 9.2 mph - N/A Fog Fog
10:53 AM 51.1 °F 50.0 °F 96% 30.16 in 0.2 mi East 10.4 mph - N/A Fog Fog
11:53 AM 53.1 °F 52.0 °F 96% 30.14 in 0.2 mi East 8.1 mph - N/A Fog Fog
12:22 PM 55.4 °F 53.6 °F 94% 30.13 in 1.0 mi East 6.9 mph - N/A   Overcast
12:33 PM 55.4 °F 55.4 °F 100% 30.13 in 2.5 mi ESE 8.1 mph - N/A   Overcast
12:40 PM 55.4 °F 55.4 °F 100% 30.13 in 3.0 mi East 8.1 mph - N/A   Overcast
12:53 PM 57.9 °F 55.9 °F 93% 30.11 in 4.0 mi East 6.9 mph - N/A   Overcast
1:27 PM 62.6 °F 57.2 °F 82% 30.10 in 6.0 mi East 6.9 mph - N/A   Haze
1:53 PM 64.0 °F 57.9 °F 80% 30.07 in 7.0 mi East 4.6 mph - N/A   Mostly Cloudy
2:53 PM 69.1 °F 60.1 °F 73% 30.05 in 9.0 mi ENE 10.4 mph - N/A   Mostly Cloudy
3:18 PM 73.4 °F 48.2 °F 41% 30.07 in 10.0 mi SSE 21.9 mph - N/A   Scattered Clouds
3:53 PM 73.0 °F 48.9 °F 42% 30.05 in 10.0 mi South 25.3 mph 31.1 mph N/A   Scattered Clouds
4:53 PM 69.1 °F 51.1 °F 53% 30.06 in 10.0 mi SSE 13.8 mph - N/A   Scattered Clouds
5:53 PM 66.0 °F 53.1 °F 63% 30.08 in 10.0 mi SSE 10.4 mph - N/A   Scattered Clouds
6:53 PM 64.0 °F 53.1 °F 67% 30.09 in 10.0 mi SE 10.4 mph - N/A   Scattered Clouds
7:53 PM 64.0 °F 55.0 °F 73% 30.10 in 10.0 mi SE 12.7 mph - N/A   Mostly Cloudy
8:53 PM 62.1 °F 55.0 °F 78% 30.09 in 10.0 mi SE 16.1 mph - N/A   Partly Cloudy
9:53 PM 63.0 °F 57.0 °F 81% 30.08 in 10.0 mi SE 16.1 mph - N/A   Partly Cloudy
10:41 PM 62.6 °F 57.2 °F 82% 30.10 in 10.0 mi SE 16.1 mph 24.2 mph N/A   Overcast
10:53 PM 63.0 °F 57.9 °F 84% 30.08 in 10.0 mi SE 16.1 mph - N/A   Overcast
11:11 PM 62.6 °F 57.2 °F 82% 30.10 in 10.0 mi SE 17.3 mph - N/A   Overcast
11:53 PM 63.0 °F 59.0 °F 87% 30.07 in 10.0 mi SSE 18.4 mph - N/A   Overcast